CW0858 Weather Reports


Display with metric or nautical units.
time (UTC)temp
F
wind
direction
speed
MPH
gust
MPH
rain 1hr
in
rain 24hr
in
rain mn
in
humidity
%
barometer
mb
20260505124528 53 0 0.0 0.0 0.00 0.00 0.00 87 1014.7
20260505123029 53 0 0.0 1.0 0.00 0.00 0.00 88 1014.5
20260505121529 53 0 0.0 1.0 0.00 0.00 0.00 88 1014.6
20260505120028 52 0 0.0 1.0 0.00 0.00 0.00 88 1014.5
20260505114530 52 0 0.0 1.0 0.00 0.00 0.00 88 1014.5
20260505113032 52 0 0.0 1.0 0.00 0.00 0.00 88 1014.5
20260505111530 52 0 0.0 1.0 0.00 0.00 0.00 88 1014.4
20260505101533 53 0 0.0 1.0 0.00 0.00 0.00 88 1014.1
20260505100030 52 111 0.0 1.0 0.00 0.00 0.00 88 1014.1
20260505094529 52 0 0.0 2.0 0.00 0.00 0.00 88 1014.1
20260505093039 52 0 0.0 1.0 0.00 0.00 0.00 88 1013.9
20260505091530 53 0 0.0 1.0 0.00 0.00 0.00 87 1013.9
20260505090028 53 0 0.0 1.0 0.00 0.00 0.00 87 1013.8
20260505084530 54 115 0.0 2.0 0.00 0.00 0.00 86 1013.6
20260505083032 54 0 0.0 1.0 0.00 0.00 0.00 85 1013.6
20260505081531 55 0 0.0 2.0 0.00 0.00 0.00 84 1013.4
20260505080030 55 0 0.0 1.0 0.00 0.00 0.00 82 1013.3
20260505074528 56 0 0.0 1.0 0.00 0.00 0.00 82 1013.2
20260505073036 56 0 0.0 2.0 0.00 0.00 0.00 82 1013.0
20260505071528 57 0 0.0 3.0 0.00 0.00 0.00 82 1013.0
20260505070028 57 0 0.0 2.0 0.00 0.00 0.00 81 1012.9
20260505064528 57 95 0.0 3.0 0.00 0.00 0.00 82 1012.7
20260505063030 57 117 0.0 2.0 0.00 0.00 0.00 81 1012.4
20260505061534 58 0 0.0 1.0 0.00 0.00 0.00 80 1012.2
20260505060033 59 102 0.0 2.0 0.00 0.00 0.00 80 1012.1
20260505054537 59 0 0.0 1.0 0.00 0.00 0.00 79 1012.0
20260505053039 60 0 0.0 0.0 0.00 0.00 0.00 79 1011.8
20260505051531 60 0 0.0 0.0 0.00 0.00 0.00 78 1011.7
20260505041529 64 0 0.0 0.0 0.00 0.00 0.00 71 1011.0
20260505040032 65 0 0.0 1.0 0.00 0.00 0.00 69 1010.8
20260505034530 66 0 0.0 1.0 0.00 0.00 0.00 68 1010.5
20260505033045 67 0 0.0 2.0 0.00 0.00 0.00 68 1010.3
20260505031528 68 0 0.0 1.0 0.00 0.00 0.00 68 1010.2
20260505030031 68 91 0.0 2.0 0.00 0.00 0.00 68 1010.0
20260505024529 69 0 0.0 1.0 0.00 0.00 0.00 67 1009.9
20260505023028 70 0 0.0 1.0 0.00 0.00 0.00 65 1009.9
20260505021529 71 0 0.0 1.0 0.00 0.00 0.00 66 1009.8
20260505020030 71 0 0.0 7.0 0.00 0.00 0.00 65 1009.8
20260505014532 72 79 0.0 2.0 0.00 0.00 0.00 63 1009.7
20260505013030 72 0 0.0 4.0 0.00 0.00 0.00 63 1009.8
20260505011527 72 75 0.0 2.0 0.00 0.00 0.00 64 1009.8
20260505010028 72 0 0.0 3.0 0.00 0.00 0.00 62 1010.0
20260505004541 72 144 0.0 4.0 0.00 0.00 0.00 62 1010.1
20260505003029 72 299 0.0 3.0 0.00 0.00 0.00 62 1010.1
20260505001531 72 144 1.0 4.0 0.00 0.00 0.00 62 1010.1
20260505000028 72 276 1.0 3.0 0.00 0.00 0.00 62 1010.3
20260504234536 72 292 0.0 3.0 0.00 0.00 0.00 63 1010.4
20260504233031 73 121 0.0 3.0 0.00 0.00 0.00 61 1010.4
20260504231540 73 325 1.0 3.0 0.00 0.00 0.00 60 1010.5
20260504230029 72 0 1.0 4.0 0.00 0.00 0.00 61 1010.7
20260504224530 72 176 1.0 3.0 0.00 0.00 0.00 59 1010.9
20260504223030 72 0 0.0 2.0 0.00 0.00 0.00 61 1011.1
20260504221529 71 51 0.0 2.0 0.00 0.00 0.00 60 1011.3
20260504220029 71 230 0.0 3.0 0.00 0.00 0.00 62 1011.5
20260504214537 71 110 0.0 3.0 0.00 0.00 0.00 58 1011.7
20260504213030 69 68 0.0 3.0 0.00 0.00 0.00 61 1011.8
20260504211529 70 98 0.0 3.0 0.00 0.00 0.00 62 1012.0
20260504210028 70 131 1.0 3.0 0.00 0.00 0.00 62 1012.2
20260504204556 68 0 0.0 4.0 0.00 0.00 0.00 65 1012.4
20260504203031 67 311 0.0 5.0 0.00 0.00 0.00 65 1012.5
20260504201528 66 153 1.0 3.0 0.00 0.00 0.00 67 1012.9
20260504200036 65 306 1.0 4.0 0.00 0.00 0.00 68 1013.0
20260504194534 63 134 0.0 3.0 0.00 0.00 0.00 72 1013.1
20260504193032 62 101 0.0 2.0 0.00 0.00 0.00 74 1013.2
20260504191529 62 317 0.0 4.0 0.00 0.00 0.00 74 1013.3
20260504190036 61 0 0.0 4.0 0.00 0.00 0.00 77 1013.4
20260504184528 60 103 0.0 2.0 0.00 0.00 0.00 76 1013.5
20260504183030 60 98 1.0 3.0 0.00 0.00 0.00 77 1013.5
20260504181529 59 107 0.0 2.0 0.00 0.00 0.00 79 1013.5
20260504180030 58 0 0.0 2.0 0.00 0.00 0.00 79 1013.6
20260504174530 58 301 1.0 3.0 0.00 0.00 0.00 79 1013.5
20260504173027 58 0 0.0 2.0 0.00 0.00 0.00 80 1013.5
20260504171538 57 0 0.0 2.0 0.00 0.00 0.00 81 1013.4